Overview Statistics Trail Chart Weather Telemetry Raw packets
 

This is the latest recevied weather packets stored in our database for station/object TONGUE. If no packets are shown the sender has not sent any weather packets the latest 10 day(s).

<< 40 41 42 43 44 45 46 >>
Time Temp. Humidity Pressure Rain* Wind** Luminosity Snow
1787802603 16.11° C 90% 0 hPa - - - -
1787802003 16.67° C 88% 0 hPa - - - -
1787801403 16.67° C 87% 0 hPa - - - -
1787800203 16.67° C 87% 0 hPa - - - -
1787799603 16.67° C 86% 0 hPa - - - -
1787799003 17.22° C 85% 0 hPa - - - -
1787798403 17.22° C 83% 0 hPa - - - -
1787797804 17.78° C 82% 0 hPa - - - -
1787797202 17.78° C 81% 0 hPa - - - -
1787796603 17.78° C 80% 0 hPa - - - -
1787796003 18.33° C 79% 0 hPa - - - -
1787795403 18.33° C 78% 0 hPa - - - -
1787794803 18.89° C 76% 0 hPa - - - -
1787794203 18.89° C 75% 0 hPa - - - -
1787793603 18.89° C 76% 0 hPa - - - -
1787793008 19.44° C 74% 0 hPa - - - -
1787792409 19.44° C 73% 0 hPa - - - -
1787791802 19.44° C 73% 0 hPa - - - -
1787791205 19.44° C 74% 0 hPa - - - -
1787790603 19.44° C 73% 0 hPa - - - -
1787790003 20° C 71% 0 hPa - - - -
1787789403 20° C 70% 0 hPa - - - -
1787788203 18.89° C 72% 0 hPa - - - -
1787787603 20.56° C 66% 0 hPa - - - -
1787787003 20° C 68% 0 hPa - - - -

* Rain since midnight (hover to see other rain measurements)
** Current wind speed in m/s (hover to see current wind gust speed)